Time,TemperatureF,DewpointF,PressureIn,WindDirection,WindDirectionDegrees,WindSpeedMPH,WindSpeedGustMPH,Humidity,HourlyPrecipIn,Conditions,Clouds,dailyrainin,SolarRadiationWatts/m^2,SoftwareType,DateUTC
2013-07-19 00:01:00,73.0,50.0,-100.00,NNW,342,6.0,15.0,45,0.00,,,0.54,0.000000,,2013-07-19 06:01:00,
2013-07-19 00:11:00,73.0,50.0,-100.00,NNW,342,6.0,15.0,45,0.00,,,0.54,0.000000,,2013-07-19 06:11:00,
2013-07-19 00:22:00,73.0,50.0,-100.00,NNW,342,6.0,15.0,45,0.00,,,0.54,0.000000,,2013-07-19 06:22:00,
2013-07-19 00:32:00,73.0,50.0,-100.00,NNW,342,6.0,15.0,45,0.00,,,0.54,0.000000,,2013-07-19 06:32:00,
2013-07-19 01:01:00,71.0,50.0,-100.00,NNW,345,6.0,16.0,48,0.00,,,0.54,0.000000,,2013-07-19 07:01:00,
2013-07-19 01:12:00,71.0,50.0,-100.00,NNW,345,6.0,16.0,48,0.00,,,0.54,0.000000,,2013-07-19 07:12:00,
2013-07-19 01:22:00,71.0,50.0,-100.00,NNW,345,6.0,16.0,48,0.00,,,0.54,0.000000,,2013-07-19 07:22:00,
2013-07-19 01:32:00,71.0,50.0,-100.00,NNW,345,6.0,16.0,48,0.00,,,0.54,0.000000,,2013-07-19 07:32:00,
2013-07-19 02:01:00,72.0,51.0,-100.00,NNW,342,6.0,15.0,47,0.00,,,-99.99,0.000000,,2013-07-19 08:01:00,
2013-07-19 02:11:00,72.0,51.0,-100.00,NNW,342,6.0,15.0,47,0.00,,,-99.99,0.000000,,2013-07-19 08:11:00,
2013-07-19 02:22:00,72.0,51.0,-100.00,NNW,342,6.0,15.0,47,0.00,,,-99.99,0.000000,,2013-07-19 08:22:00,
2013-07-19 02:32:00,72.0,51.0,-100.00,NNW,342,6.0,15.0,47,0.00,,,-99.99,0.000000,,2013-07-19 08:32:00,
2013-07-19 03:02:00,70.0,50.0,-100.00,North,353,3.0,14.0,50,0.00,,,-99.99,0.000000,,2013-07-19 09:02:00,
2013-07-19 03:11:00,70.0,50.0,-100.00,North,353,3.0,14.0,50,0.00,,,-99.99,0.000000,,2013-07-19 09:11:00,
2013-07-19 03:22:00,70.0,50.0,-100.00,North,353,3.0,14.0,50,0.00,,,-99.99,0.000000,,2013-07-19 09:22:00,
2013-07-19 03:32:00,70.0,50.0,-100.00,North,353,3.0,14.0,50,0.00,,,-99.99,0.000000,,2013-07-19 09:32:00,
2013-07-19 04:01:00,69.0,54.0,-100.00,NW,318,4.0,11.0,59,0.00,,,0.54,0.000000,,2013-07-19 10:01:00,
2013-07-19 04:11:00,69.0,54.0,-100.00,NW,318,4.0,11.0,59,0.00,,,0.54,0.000000,,2013-07-19 10:11:00,
2013-07-19 04:22:00,69.0,54.0,-100.00,NW,318,4.0,11.0,59,0.00,,,0.54,0.000000,,2013-07-19 10:22:00,
2013-07-19 04:32:00,69.0,54.0,-100.00,NW,318,4.0,11.0,59,0.00,,,0.54,0.000000,,2013-07-19 10:32:00,
2013-07-19 05:02:00,66.0,52.0,-100.00,NNW,348,6.0,13.0,60,0.00,,,0.54,0.000000,,2013-07-19 11:02:00,
2013-07-19 05:12:00,66.0,52.0,-100.00,NNW,348,6.0,13.0,60,0.00,,,0.54,0.000000,,2013-07-19 11:12:00,
2013-07-19 05:22:00,66.0,52.0,-100.00,NNW,348,6.0,13.0,60,0.00,,,0.54,0.000000,,2013-07-19 11:22:00,
2013-07-19 05:33:00,66.0,52.0,-100.00,NNW,348,6.0,13.0,60,0.00,,,0.54,0.000000,,2013-07-19 11:33:00,
2013-07-19 06:01:00,66.0,49.0,-100.00,NW,313,3.0,15.0,54,0.00,,,-99.99,0.000000,,2013-07-19 12:01:00,
2013-07-19 06:12:00,66.0,49.0,-100.00,NW,313,3.0,15.0,54,0.00,,,-99.99,0.000000,,2013-07-19 12:12:00,
2013-07-19 06:22:00,66.0,49.0,-100.00,NW,313,3.0,15.0,54,0.00,,,-99.99,0.000000,,2013-07-19 12:22:00,
2013-07-19 06:33:00,66.0,49.0,-100.00,NW,313,3.0,15.0,54,0.00,,,-99.99,0.000000,,2013-07-19 12:33:00,
2013-07-19 07:02:00,61.0,52.0,-100.00,NW,311,7.0,-999.0,73,0.11,,,0.65,0.000000,,2013-07-19 13:02:00,
2013-07-19 07:12:00,61.0,52.0,-100.00,NW,311,7.0,-999.0,73,0.11,,,0.65,0.000000,,2013-07-19 13:12:00,
2013-07-19 07:22:00,61.0,52.0,-100.00,NW,311,7.0,-999.0,73,0.11,,,0.65,0.000000,,2013-07-19 13:22:00,
2013-07-19 07:32:00,61.0,52.0,-100.00,NW,311,7.0,-999.0,73,0.11,,,0.65,0.000000,,2013-07-19 13:32:00,
2013-07-19 08:02:00,67.0,50.0,-100.00,WNW,298,6.0,18.0,55,0.03,,,0.68,3.000000,,2013-07-19 14:02:00,
2013-07-19 08:11:00,67.0,50.0,-100.00,WNW,298,6.0,18.0,55,0.03,,,0.68,3.000000,,2013-07-19 14:11:00,
2013-07-19 08:22:00,67.0,50.0,-100.00,WNW,298,6.0,18.0,55,0.03,,,0.68,3.000000,,2013-07-19 14:22:00,
2013-07-19 08:33:00,67.0,50.0,-100.00,WNW,298,6.0,18.0,55,0.03,,,0.68,3.000000,,2013-07-19 14:33:00,
2013-07-19 09:02:00,66.0,51.0,-100.00,NNE,26,4.0,18.0,59,0.00,,,0.68,23.000000,,2013-07-19 15:02:00,
2013-07-19 09:11:00,66.0,51.0,-100.00,NNE,26,4.0,18.0,59,0.00,,,0.68,23.000000,,2013-07-19 15:11:00,
2013-07-19 09:22:00,66.0,51.0,-100.00,NNE,26,4.0,18.0,59,0.00,,,0.68,23.000000,,2013-07-19 15:22:00,
2013-07-19 09:32:00,66.0,51.0,-100.00,NNE,26,4.0,18.0,59,0.00,,,0.68,23.000000,,2013-07-19 15:32:00,
2013-07-19 10:01:00,63.0,54.0,-100.00,WSW,255,5.0,11.0,73,0.00,,,0.68,26.000000,,2013-07-19 16:01:00,
2013-07-19 10:11:00,63.0,54.0,-100.00,WSW,255,5.0,11.0,73,0.00,,,0.68,26.000000,,2013-07-19 16:11:00,
2013-07-19 10:22:00,63.0,54.0,-100.00,WSW,255,5.0,11.0,73,0.00,,,0.68,26.000000,,2013-07-19 16:22:00,
2013-07-19 10:32:00,63.0,54.0,-100.00,WSW,255,5.0,11.0,73,0.00,,,0.68,26.000000,,2013-07-19 16:32:00,
2013-07-19 11:02:00,63.0,57.0,-100.00,West,262,6.0,12.0,82,0.02,,,0.70,22.000000,,2013-07-19 17:02:00,
2013-07-19 11:12:00,63.0,57.0,-100.00,West,262,6.0,12.0,82,0.02,,,0.70,22.000000,,2013-07-19 17:12:00,
2013-07-19 11:22:00,63.0,57.0,-100.00,West,262,6.0,12.0,82,0.02,,,0.70,22.000000,,2013-07-19 17:22:00,
2013-07-19 11:32:00,63.0,57.0,-100.00,West,262,6.0,12.0,82,0.02,,,0.70,22.000000,,2013-07-19 17:32:00,
2013-07-19 12:01:00,66.0,57.0,-100.00,West,276,6.0,15.0,73,0.02,,,0.72,16.000000,,2013-07-19 18:01:00,
2013-07-19 12:11:00,66.0,57.0,-100.00,West,276,6.0,15.0,73,0.02,,,0.72,16.000000,,2013-07-19 18:11:00,
2013-07-19 12:21:00,66.0,57.0,-100.00,West,276,6.0,15.0,73,0.02,,,0.72,16.000000,,2013-07-19 18:21:00,
2013-07-19 12:32:00,66.0,57.0,-100.00,West,276,6.0,15.0,73,0.02,,,0.72,16.000000,,2013-07-19 18:32:00,
2013-07-19 13:01:00,71.0,59.0,-100.00,ENE,68,2.0,13.0,67,0.00,,,0.72,186.000000,,2013-07-19 19:01:00,
2013-07-19 13:11:00,71.0,59.0,-100.00,ENE,68,2.0,13.0,67,0.00,,,0.72,186.000000,,2013-07-19 19:11:00,
2013-07-19 13:21:00,71.0,59.0,-100.00,ENE,68,2.0,13.0,67,0.00,,,0.72,186.000000,,2013-07-19 19:21:00,
2013-07-19 13:32:00,71.0,59.0,-100.00,ENE,68,2.0,13.0,67,0.00,,,0.72,186.000000,,2013-07-19 19:32:00,
2013-07-19 14:01:00,78.0,60.0,-100.00,SSE,149,6.0,11.0,54,-99.99,,,0.68,166.000000,,2013-07-19 20:01:00,
2013-07-19 14:11:00,78.0,60.0,-100.00,SSE,149,6.0,11.0,54,-99.99,,,0.68,166.000000,,2013-07-19 20:11:00,
2013-07-19 14:22:00,78.0,60.0,-100.00,SSE,149,6.0,11.0,54,-99.99,,,0.68,166.000000,,2013-07-19 20:22:00,
2013-07-19 14:33:00,78.0,60.0,-100.00,SSE,149,6.0,11.0,54,-99.99,,,0.68,166.000000,,2013-07-19 20:33:00,
2013-07-19 15:01:00,78.0,58.0,-100.00,South,187,6.0,12.0,50,0.00,,,0.24,20.000000,,2013-07-19 21:01:00,
2013-07-19 15:11:00,78.0,58.0,-100.00,South,187,6.0,12.0,50,0.00,,,0.24,20.000000,,2013-07-19 21:11:00,
2013-07-19 15:22:00,78.0,58.0,-100.00,South,187,6.0,12.0,50,0.00,,,0.24,20.000000,,2013-07-19 21:22:00,
2013-07-19 15:32:00,78.0,58.0,-100.00,South,187,6.0,12.0,50,0.00,,,0.24,20.000000,,2013-07-19 21:32:00,
2013-07-19 16:01:00,80.0,54.0,-100.00,SSW,204,5.0,14.0,41,0.00,,,0.18,0.000000,,2013-07-19 22:01:00,
2013-07-19 16:11:00,80.0,54.0,-100.00,SSW,204,5.0,14.0,41,0.00,,,0.18,0.000000,,2013-07-19 22:11:00,
2013-07-19 16:21:00,80.0,54.0,-100.00,SSW,204,5.0,14.0,41,0.00,,,0.18,0.000000,,2013-07-19 22:21:00,
2013-07-19 16:32:00,80.0,54.0,-100.00,SSW,204,5.0,14.0,41,0.00,,,0.18,0.000000,,2013-07-19 22:32:00,
2013-07-19 17:01:00,80.0,53.0,-100.00,SW,231,6.0,18.0,39,0.00,,,0.18,0.000000,,2013-07-19 23:01:00,
2013-07-19 17:11:00,80.0,53.0,-100.00,SW,231,6.0,18.0,39,0.00,,,0.18,0.000000,,2013-07-19 23:11:00,
2013-07-19 17:21:00,80.0,53.0,-100.00,SW,231,6.0,18.0,39,0.00,,,0.18,0.000000,,2013-07-19 23:21:00,
2013-07-19 17:32:00,80.0,53.0,-100.00,SW,231,6.0,18.0,39,0.00,,,0.18,0.000000,,2013-07-19 23:32:00,
2013-07-19 18:01:00,82.0,53.0,-100.00,SSE,150,7.0,16.0,37,0.00,,,0.18,0.000000,,2013-07-20 00:01:00,
2013-07-19 18:11:00,82.0,53.0,-100.00,SSE,150,7.0,16.0,37,0.00,,,0.18,0.000000,,2013-07-20 00:11:00,
2013-07-19 18:22:00,82.0,53.0,-100.00,SSE,150,7.0,16.0,37,0.00,,,0.18,0.000000,,2013-07-20 00:22:00,
2013-07-19 18:32:00,82.0,53.0,-100.00,SSE,150,7.0,16.0,37,0.00,,,0.18,0.000000,,2013-07-20 00:32:00,
2013-07-19 19:01:00,83.0,53.0,-100.00,SSE,168,4.0,14.0,36,0.00,,,0.18,0.000000,,2013-07-20 01:01:00,
2013-07-19 19:11:00,83.0,53.0,-100.00,SSE,168,4.0,14.0,36,0.00,,,0.18,0.000000,,2013-07-20 01:11:00,
2013-07-19 19:22:00,83.0,53.0,-100.00,SSE,168,4.0,14.0,36,0.00,,,0.18,0.000000,,2013-07-20 01:22:00,
2013-07-19 19:32:00,83.0,53.0,-100.00,SSE,168,4.0,14.0,36,0.00,,,0.18,0.000000,,2013-07-20 01:32:00,
2013-07-19 20:02:00,77.0,55.0,-100.00,SE,131,10.0,16.0,47,0.00,,,0.18,0.000000,,2013-07-20 02:02:00,
2013-07-19 20:11:00,77.0,55.0,-100.00,SE,131,10.0,16.0,47,0.00,,,0.18,0.000000,,2013-07-20 02:11:00,
2013-07-19 20:22:00,77.0,55.0,-100.00,SE,131,10.0,16.0,47,0.00,,,0.18,0.000000,,2013-07-20 02:22:00,
2013-07-19 20:32:00,77.0,55.0,-100.00,SE,131,10.0,16.0,47,0.00,,,0.18,0.000000,,2013-07-20 02:32:00,
2013-07-19 21:02:00,74.0,58.0,-100.00,South,171,4.0,18.0,57,0.00,,,0.18,0.000000,,2013-07-20 03:02:00,
2013-07-19 21:11:00,74.0,58.0,-100.00,South,171,4.0,18.0,57,0.00,,,0.18,0.000000,,2013-07-20 03:11:00,
2013-07-19 21:22:00,74.0,58.0,-100.00,South,171,4.0,18.0,57,0.00,,,0.18,0.000000,,2013-07-20 03:22:00,
2013-07-19 21:32:00,74.0,58.0,-100.00,South,171,4.0,18.0,57,0.00,,,0.18,0.000000,,2013-07-20 03:32:00,
2013-07-19 22:02:00,71.0,56.0,-100.00,SSW,205,3.0,9.0,59,0.00,,,0.18,0.000000,,2013-07-20 04:02:00,
2013-07-19 22:12:00,71.0,56.0,-100.00,SSW,205,3.0,9.0,59,0.00,,,0.18,0.000000,,2013-07-20 04:12:00,
2013-07-19 22:22:00,71.0,56.0,-100.00,SSW,205,3.0,9.0,59,0.00,,,0.18,0.000000,,2013-07-20 04:22:00,
2013-07-19 22:33:00,71.0,56.0,-100.00,SSW,205,3.0,9.0,59,0.00,,,0.18,0.000000,,2013-07-20 04:33:00,
2013-07-19 23:02:00,70.0,56.0,-100.00,NNE,31,7.0,13.0,62,0.00,,,0.18,0.000000,,2013-07-20 05:02:00,
2013-07-19 23:12:00,70.0,56.0,-100.00,NNE,31,7.0,13.0,62,0.00,,,0.18,0.000000,,2013-07-20 05:12:00,
2013-07-19 23:22:00,70.0,56.0,-100.00,NNE,31,7.0,13.0,62,0.00,,,0.18,0.000000,,2013-07-20 05:22:00,
2013-07-19 23:32:00,70.0,56.0,-100.00,NNE,31,7.0,13.0,62,0.00,,,0.18,0.000000,,2013-07-20 05:32:00,